DAL680 TXKF-KATL

Flight info

Callsign DAL680
Flight time N/A
Altitude 32000
Route JIMAC M326 JAINS/N0465F320 Y436 DEDDY DCT HOTHH JJEDI4
Aircraft MD88/M-SDFGIRWY/C

Departure

Time 2026-05-07 21:17
Airport L.F. Wade International Airport (TXKF)

Arrival

Time N/A
Airport Hartsfield Jackson Atlanta International Airport (KATL)
Time Latitude Longitude Altitude Speed Heading
2026-05-07 19:37 32.36329 -64.70350 29 ft 0 kts 246°
2026-05-07 21:07 32.36338 -64.70327 29 ft 3 kts 245°
2026-05-07 21:07 32.36352 -64.70306 29 ft 4 kts 208°
2026-05-07 21:07 32.36374 -64.70301 29 ft 4 kts 167°
2026-05-07 21:08 32.36395 -64.70309 29 ft 1 kts 160°
2026-05-07 21:08 32.36399 -64.70311 29 ft 0 kts 160°
2026-05-07 21:12 32.36385 -64.70305 29 ft 7 kts 160°
2026-05-07 21:13 32.36333 -64.70280 29 ft 6 kts 139°
2026-05-07 21:13 32.36330 -64.70234 29 ft 6 kts 73°
2026-05-07 21:13 32.36343 -64.70189 29 ft 6 kts 70°
2026-05-07 21:13 32.36358 -64.70143 29 ft 6 kts 68°
2026-05-07 21:14 32.36392 -64.70046 29 ft 18 kts 67°
2026-05-07 21:14 32.36439 -64.69913 29 ft 17 kts 68°
2026-05-07 21:14 32.36485 -64.69783 29 ft 17 kts 67°
2026-05-07 21:14 32.36530 -64.69657 29 ft 16 kts 66°
2026-05-07 21:15 32.36574 -64.69536 29 ft 16 kts 67°
2026-05-07 21:15 32.36620 -64.69418 29 ft 15 kts 52°
2026-05-07 21:15 32.36650 -64.69311 30 ft 14 kts 99°
2026-05-07 21:15 32.36631 -64.69198 30 ft 16 kts 102°
2026-05-07 21:16 32.36593 -64.68977 30 ft 49 kts 102°
2026-05-07 21:16 32.36484 -64.68338 33 ft 109 kts 101°
2026-05-07 21:16 32.36299 -64.67263 29 ft 156 kts 102°
2026-05-07 21:16 32.36080 -64.65889 209 ft 177 kts 105°
2026-05-07 21:17 32.35860 -64.64688 788 ft 167 kts 105°
2026-05-07 21:17 32.35583 -64.63303 1143 ft 180 kts 110°
2026-05-07 21:17 32.34900 -64.62078 1526 ft 184 kts 149°
2026-05-07 21:17 32.33633 -64.61766 1699 ft 202 kts 197°
2026-05-07 21:18 32.32572 -64.62849 1972 ft 215 kts 250°
2026-05-07 21:18 32.32544 -64.64556 2792 ft 201 kts 279°
2026-05-07 21:18 32.32835 -64.66209 3289 ft 216 kts 279°
2026-05-07 21:18 32.33152 -64.68062 3426 ft 245 kts 279°
2026-05-07 21:19 32.33435 -64.70105 3888 ft 256 kts 273°
2026-05-07 21:19 32.33477 -64.72233 4539 ft 260 kts 268°
2026-05-07 21:19 32.33416 -64.74373 5274 ft 260 kts 267°
2026-05-07 21:19 32.33379 -64.76510 5969 ft 261 kts 269°
2026-05-07 21:20 32.33370 -64.78685 6463 ft 270 kts 269°
2026-05-07 21:20 32.33336 -64.80947 6665 ft 289 kts 269°
2026-05-07 21:20 32.33323 -64.83423 6792 ft 308 kts 270°
2026-05-07 21:20 32.33363 -64.85814 8244 ft 266 kts 272°
2026-05-07 21:21 32.33403 -64.87936 9371 ft 255 kts 272°
2026-05-07 21:21 32.33444 -64.90036 9965 ft 256 kts 273°
2026-05-07 21:21 32.33495 -64.92154 10399 ft 260 kts 273°
2026-05-07 21:21 32.33555 -64.94315 10785 ft 267 kts 273°
2026-05-07 21:22 32.33619 -64.96542 11105 ft 277 kts 273°
2026-05-07 21:22 32.33686 -64.98877 11265 ft 292 kts 273°
2026-05-07 21:22 32.33756 -65.01332 11433 ft 306 kts 273°
2026-05-07 21:22 32.33827 -65.03896 11605 ft 319 kts 272°
2026-05-07 21:23 32.33895 -65.06545 12003 ft 323 kts 272°
2026-05-07 21:23 32.33960 -65.09203 12474 ft 325 kts 272°
2026-05-07 21:23 32.34022 -65.11886 12923 ft 327 kts 272°
2026-05-07 21:23 32.34082 -65.14589 13349 ft 332 kts 272°
2026-05-07 21:24 32.34141 -65.17363 13563 ft 343 kts 272°
2026-05-07 21:24 32.34200 -65.20239 13695 ft 357 kts 272°
2026-05-07 21:24 32.34252 -65.23231 13873 ft 369 kts 271°
2026-05-07 21:24 32.34300 -65.26272 14366 ft 371 kts 271°
2026-05-07 21:25 32.34348 -65.29333 14871 ft 373 kts 271°
2026-05-07 21:25 32.34395 -65.32409 15441 ft 375 kts 271°
2026-05-07 21:25 32.34443 -65.35498 15979 ft 378 kts 271°
2026-05-07 21:25 32.34491 -65.38617 16521 ft 380 kts 271°
2026-05-07 21:26 32.34540 -65.41745 17046 ft 382 kts 271°
2026-05-07 21:26 32.34590 -65.44898 17576 ft 384 kts 271°
2026-05-07 21:26 32.34639 -65.48069 18056 ft 388 kts 271°
2026-05-07 21:26 32.34688 -65.51220 18544 ft 389 kts 271°
2026-05-07 21:27 32.34737 -65.54428 18950 ft 392 kts 271°
2026-05-07 21:27 32.34786 -65.57659 19360 ft 394 kts 271°
2026-05-07 21:27 32.34835 -65.60910 19769 ft 396 kts 271°
2026-05-07 21:27 32.34885 -65.64179 20165 ft 399 kts 271°
2026-05-07 21:28 32.34935 -65.67466 20548 ft 401 kts 271°
2026-05-07 21:28 32.34981 -65.70777 20944 ft 403 kts 271°
2026-05-07 21:28 32.35019 -65.74102 21304 ft 406 kts 271°
2026-05-07 21:28 32.35054 -65.77448 21689 ft 408 kts 271°
2026-05-07 21:29 32.35089 -65.80812 22048 ft 410 kts 271°
2026-05-07 21:29 32.35125 -65.84192 22405 ft 413 kts 271°
2026-05-07 21:29 32.35162 -65.87594 22768 ft 415 kts 271°
2026-05-07 21:29 32.35201 -65.91014 23098 ft 417 kts 271°
2026-05-07 21:30 32.35240 -65.94452 23438 ft 419 kts 271°
2026-05-07 21:30 32.35280 -65.97909 23747 ft 422 kts 271°
2026-05-07 21:30 32.35320 -66.01380 24055 ft 423 kts 271°
2026-05-07 21:30 32.35360 -66.04862 24351 ft 424 kts 271°
2026-05-07 21:31 32.35400 -66.08354 24629 ft 426 kts 271°
2026-05-07 21:31 32.35441 -66.11861 24911 ft 427 kts 271°
2026-05-07 21:31 32.35481 -66.15382 25203 ft 429 kts 271°
2026-05-07 21:31 32.35519 -66.18916 25482 ft 431 kts 271°
2026-05-07 21:32 32.35548 -66.22460 25764 ft 432 kts 271°
2026-05-07 21:32 32.35571 -66.26025 26038 ft 434 kts 271°
2026-05-07 21:32 32.35593 -66.29595 26311 ft 435 kts 270°
2026-05-07 21:32 32.35616 -66.33182 26552 ft 437 kts 271°
2026-05-07 21:33 32.35641 -66.36782 26826 ft 438 kts 271°
2026-05-07 21:33 32.35667 -66.40395 27056 ft 440 kts 271°
2026-05-07 21:33 32.35694 -66.44016 27307 ft 441 kts 271°
2026-05-07 21:33 32.35722 -66.47652 27554 ft 443 kts 271°
2026-05-07 21:34 32.35751 -66.51302 27777 ft 444 kts 271°
2026-05-07 21:34 32.35779 -66.54963 28016 ft 446 kts 271°
2026-05-07 21:34 32.35807 -66.58636 28263 ft 447 kts 271°
2026-05-07 21:34 32.35834 -66.62318 28496 ft 449 kts 271°
2026-05-07 21:35 32.35862 -66.66016 28721 ft 450 kts 271°
2026-05-07 21:35 32.35884 -66.69724 28950 ft 452 kts 270°
2026-05-07 21:35 32.35896 -66.73444 29165 ft 453 kts 270°
2026-05-07 21:35 32.35905 -66.77176 29386 ft 454 kts 270°
2026-05-07 21:36 32.35911 -66.79652 29520 ft 455 kts 270°
2026-05-07 21:36 32.35921 -66.83404 29734 ft 457 kts 270°
2026-05-07 21:36 32.35934 -66.87165 29937 ft 458 kts 270°
2026-05-07 21:36 32.35947 -66.90932 30157 ft 459 kts 271°
2026-05-07 21:37 32.35966 -66.95943 30370 ft 460 kts 271°
2026-05-07 21:37 32.35980 -66.99725 30566 ft 461 kts 271°
2026-05-07 21:37 32.35994 -67.03522 30709 ft 460 kts 270°
2026-05-07 21:37 32.36003 -67.06031 31261 ft 440 kts 271°
2026-05-07 21:38 32.36011 -67.09518 32512 ft 416 kts 271°
2026-05-07 21:38 32.36020 -67.12953 32516 ft 417 kts 271°
2026-05-07 21:38 32.36033 -67.16364 32834 ft 412 kts 271°
2026-05-07 21:38 32.36038 -67.19735 33129 ft 407 kts 271°
2026-05-07 21:39 32.36037 -67.23065 33429 ft 403 kts 271°
2026-05-07 21:39 32.36033 -67.26357 33711 ft 399 kts 271°
2026-05-07 21:39 32.36030 -67.29641 33861 ft 399 kts 271°
2026-05-07 21:39 32.36028 -67.32928 33928 ft 401 kts 271°
2026-05-07 21:40 32.36028 -67.39524 33974 ft 406 kts 271°
2026-05-07 21:40 32.36029 -67.46259 33991 ft 413 kts 271°
2026-05-07 21:41 32.36028 -67.53106 33988 ft 419 kts 271°
2026-05-07 21:41 32.36026 -67.60055 33987 ft 426 kts 271°
2026-05-07 21:42 32.36021 -67.67100 33985 ft 431 kts 271°
2026-05-07 21:42 32.35988 -67.74225 33982 ft 435 kts 270°
2026-05-07 21:43 32.35950 -67.81385 33978 ft 435 kts 270°
2026-05-07 21:43 32.35918 -67.88541 33980 ft 434 kts 270°
2026-05-07 21:44 32.35889 -67.95678 33969 ft 434 kts 270°
2026-05-07 21:44 32.35861 -68.02810 33961 ft 433 kts 270°
2026-05-07 21:45 32.35833 -68.09937 33975 ft 433 kts 270°
2026-05-07 21:45 32.35806 -68.17055 33962 ft 433 kts 271°
2026-05-07 21:46 32.35775 -68.24171 33967 ft 433 kts 268°
2026-05-07 21:46 32.35232 -68.31252 33957 ft 430 kts 265°
2026-05-07 21:47 32.34598 -68.38165 33958 ft 416 kts 265°
2026-05-07 21:47 32.34053 -68.44918 33950 ft 410 kts 266°
2026-05-07 21:48 32.33555 -68.51645 33954 ft 412 kts 266°
2026-05-07 21:48 32.33061 -68.58418 33954 ft 415 kts 266°
2026-05-07 21:49 32.32561 -68.65173 33965 ft 415 kts 266°
2026-05-07 21:49 32.32052 -68.71971 33953 ft 415 kts 266°
2026-05-07 21:50 32.31526 -68.78757 33962 ft 415 kts 266°
2026-05-07 21:50 32.30981 -68.85538 33958 ft 414 kts 266°
2026-05-07 21:51 32.30439 -68.92318 33955 ft 414 kts 266°
2026-05-07 21:51 32.29901 -68.99096 33958 ft 414 kts 266°
2026-05-07 21:52 32.29366 -69.05867 33954 ft 414 kts 266°
2026-05-07 21:52 32.28831 -69.12638 33954 ft 414 kts 266°
2026-05-07 21:53 32.28294 -69.19404 33953 ft 413 kts 266°
2026-05-07 21:53 32.27749 -69.26163 33941 ft 413 kts 266°
2026-05-07 21:54 32.27180 -69.32913 33950 ft 413 kts 266°
2026-05-07 21:54 32.26610 -69.39663 33940 ft 413 kts 266°
2026-05-07 21:55 32.26046 -69.46410 33950 ft 412 kts 266°
2026-05-07 21:55 32.25485 -69.53149 33949 ft 412 kts 266°
2026-05-07 21:56 32.24927 -69.59844 33938 ft 412 kts 266°
2026-05-07 21:56 32.24366 -69.66579 33928 ft 412 kts 266°
2026-05-07 21:57 32.23801 -69.73312 33942 ft 412 kts 266°
2026-05-07 21:57 32.23211 -69.80039 33932 ft 412 kts 266°
2026-05-07 21:58 32.22615 -69.86771 33938 ft 412 kts 266°
2026-05-07 21:58 32.22025 -69.93498 33938 ft 412 kts 266°
2026-05-07 21:59 32.21437 -70.00229 33942 ft 412 kts 266°
2026-05-07 21:59 32.20849 -70.06960 33942 ft 412 kts 266°
2026-05-07 22:00 32.20261 -70.13686 33935 ft 412 kts 266°
2026-05-07 22:00 32.19672 -70.20402 33932 ft 411 kts 266°
2026-05-07 22:01 32.19064 -70.27097 33933 ft 410 kts 266°
2026-05-07 22:01 32.18756 -70.30440 33934 ft 410 kts 266°
2026-05-07 22:02 32.18296 -70.35417 33937 ft 411 kts 266°
2026-05-07 22:02 32.17683 -70.42084 33935 ft 411 kts 266°
2026-05-07 22:03 32.17071 -70.48789 33919 ft 411 kts 266°
2026-05-07 22:03 32.16459 -70.55496 33930 ft 411 kts 266°
2026-05-07 22:04 32.15846 -70.62199 33928 ft 411 kts 266°
2026-05-07 22:04 32.15233 -70.68906 33921 ft 411 kts 266°
2026-05-07 22:05 32.14599 -70.75612 33920 ft 411 kts 265°
2026-05-07 22:05 32.13951 -70.82319 33921 ft 411 kts 266°
2026-05-07 22:06 32.13307 -70.89025 33915 ft 412 kts 266°
2026-05-07 22:06 32.12666 -70.95734 33914 ft 412 kts 266°
2026-05-07 22:07 32.12027 -71.02452 33911 ft 412 kts 266°
2026-05-07 22:07 32.11386 -71.09171 33913 ft 412 kts 266°
2026-05-07 22:08 32.10746 -71.15888 33908 ft 412 kts 266°
2026-05-07 22:08 32.10090 -71.22608 33916 ft 412 kts 265°
2026-05-07 22:09 32.09415 -71.29327 33913 ft 413 kts 265°
2026-05-07 22:09 32.08741 -71.36046 33914 ft 412 kts 266°
2026-05-07 22:10 32.08077 -71.42716 33912 ft 412 kts 266°
2026-05-07 22:10 32.07411 -71.49434 33912 ft 412 kts 266°
2026-05-07 22:11 32.06744 -71.56149 33913 ft 412 kts 266°
2026-05-07 22:11 32.06077 -71.62864 33915 ft 412 kts 266°
2026-05-07 22:12 32.05407 -71.69574 33911 ft 412 kts 266°
2026-05-07 22:12 32.04753 -71.76281 33907 ft 412 kts 266°
2026-05-07 22:13 32.04045 -71.82974 33905 ft 412 kts 264°
2026-05-07 22:13 32.03216 -71.89656 33894 ft 412 kts 265°
2026-05-07 22:14 32.02429 -71.96341 33910 ft 411 kts 265°
2026-05-07 22:14 32.01679 -72.03023 33912 ft 411 kts 265°
2026-05-07 22:15 32.00941 -72.09702 33895 ft 411 kts 265°
2026-05-07 22:15 32.00197 -72.16380 33915 ft 411 kts 265°
2026-05-07 22:16 31.99486 -72.22727 33902 ft 411 kts 265°
2026-05-07 22:16 31.98734 -72.29400 33896 ft 411 kts 265°
2026-05-07 22:17 31.97956 -72.36070 33896 ft 411 kts 265°
2026-05-07 22:17 31.97173 -72.42743 33907 ft 411 kts 265°
2026-05-07 22:18 31.96005 -72.52759 33906 ft 412 kts 265°
2026-05-07 22:19 31.95226 -72.59443 33903 ft 412 kts 265°
2026-05-07 22:19 31.94448 -72.66134 33903 ft 412 kts 265°
2026-05-07 22:20 31.93667 -72.72826 33903 ft 413 kts 265°
2026-05-07 22:20 31.92881 -72.79518 33900 ft 413 kts 265°
2026-05-07 22:21 31.92069 -72.86209 33899 ft 413 kts 265°
2026-05-07 22:21 31.91255 -72.92903 33899 ft 413 kts 265°
2026-05-07 22:22 31.90446 -72.99597 33898 ft 413 kts 265°
2026-05-07 22:22 31.89640 -73.06288 33901 ft 413 kts 265°
2026-05-07 22:23 31.88833 -73.12985 33898 ft 413 kts 265°
2026-05-07 22:23 31.88026 -73.19682 33899 ft 413 kts 265°
2026-05-07 22:24 31.87215 -73.26376 33899 ft 414 kts 265°
2026-05-07 22:24 31.86379 -73.33072 33903 ft 414 kts 265°
2026-05-07 22:25 31.85537 -73.39766 33897 ft 414 kts 265°
2026-05-07 22:25 31.84701 -73.46456 33897 ft 414 kts 265°
2026-05-07 22:26 31.83872 -73.53105 33901 ft 414 kts 265°
2026-05-07 22:26 31.83040 -73.59794 33897 ft 413 kts 265°
2026-05-07 22:27 31.82205 -73.66486 33895 ft 414 kts 265°
2026-05-07 22:27 31.81372 -73.73177 33897 ft 413 kts 265°
2026-05-07 22:28 31.80665 -73.78779 33897 ft 413 kts 265°
2026-05-07 22:28 31.79836 -73.85467 33895 ft 413 kts 265°
2026-05-07 22:29 31.78958 -73.92098 33894 ft 413 kts 265°
2026-05-07 22:29 31.78064 -73.98769 33891 ft 413 kts 265°
2026-05-07 22:30 31.77192 -74.05438 33889 ft 413 kts 265°
2026-05-07 22:30 31.76337 -74.12104 33890 ft 412 kts 265°
2026-05-07 22:31 31.75480 -74.18766 33888 ft 412 kts 266°
2026-05-07 22:31 31.74623 -74.25420 33885 ft 412 kts 266°
2026-05-07 22:32 31.73763 -74.32070 33890 ft 412 kts 266°
2026-05-07 22:32 31.72892 -74.38719 33891 ft 412 kts 265°
2026-05-07 22:33 31.71998 -74.45363 33891 ft 412 kts 265°
2026-05-07 22:33 31.71108 -74.52003 33887 ft 412 kts 265°
2026-05-07 22:34 31.70222 -74.58643 33888 ft 411 kts 266°
2026-05-07 22:34 31.69338 -74.65281 33890 ft 411 kts 266°
2026-05-07 22:35 31.68453 -74.71916 33886 ft 411 kts 266°
2026-05-07 22:35 31.67569 -74.78544 33886 ft 411 kts 266°
2026-05-07 22:36 31.66684 -74.85125 33883 ft 411 kts 266°
2026-05-07 22:36 31.65772 -74.91741 33886 ft 411 kts 266°
2026-05-07 22:37 31.64855 -74.98355 33882 ft 410 kts 266°
2026-05-07 22:37 31.63945 -75.04964 33881 ft 410 kts 266°
2026-05-07 22:38 31.63036 -75.11565 33879 ft 410 kts 266°
2026-05-07 22:38 31.62131 -75.18166 33881 ft 409 kts 266°
2026-05-07 22:39 31.61225 -75.24756 33877 ft 409 kts 266°
2026-05-07 22:39 31.60319 -75.31347 33878 ft 409 kts 266°
2026-05-07 22:40 31.59388 -75.37921 33882 ft 409 kts 266°
2026-05-07 22:40 31.58451 -75.44492 33881 ft 408 kts 266°
2026-05-07 22:41 31.57518 -75.51054 33878 ft 408 kts 266°
2026-05-07 22:41 31.56593 -75.57605 33880 ft 407 kts 266°
2026-05-07 22:42 31.55666 -75.64150 33879 ft 407 kts 266°
2026-05-07 22:42 31.54741 -75.70687 33882 ft 406 kts 266°
2026-05-07 22:43 31.53817 -75.77211 33878 ft 406 kts 266°
2026-05-07 22:43 31.52881 -75.83727 33879 ft 405 kts 266°
2026-05-07 22:44 31.51926 -75.90227 33882 ft 404 kts 266°
2026-05-07 22:44 31.50977 -75.96719 33877 ft 404 kts 266°
2026-05-07 22:45 31.50032 -76.03197 33879 ft 403 kts 266°
2026-05-07 22:45 31.49091 -76.09683 33931 ft 404 kts 266°
2026-05-07 22:45 31.48619 -76.12915 34144 ft 401 kts 266°
2026-05-07 22:46 31.48148 -76.16126 34332 ft 399 kts 266°
2026-05-07 22:46 31.47681 -76.19329 34483 ft 398 kts 266°
2026-05-07 22:46 31.47217 -76.22521 34655 ft 397 kts 266°
2026-05-07 22:46 31.46754 -76.25699 34803 ft 396 kts 266°
2026-05-07 22:47 31.46288 -76.28871 34976 ft 394 kts 266°
2026-05-07 22:47 31.45817 -76.32028 35081 ft 394 kts 266°
2026-05-07 22:47 31.45350 -76.35141 35223 ft 393 kts 266°
2026-05-07 22:47 31.44876 -76.38288 35327 ft 392 kts 266°
2026-05-07 22:48 31.44404 -76.41431 35439 ft 392 kts 266°
2026-05-07 22:48 31.43934 -76.44564 35589 ft 390 kts 266°
2026-05-07 22:48 31.43465 -76.47691 35730 ft 389 kts 266°
2026-05-07 22:49 31.42530 -76.53943 35840 ft 390 kts 266°
2026-05-07 22:49 31.41599 -76.60185 35863 ft 389 kts 266°
2026-05-07 22:50 31.40667 -76.66404 35869 ft 387 kts 266°
2026-05-07 22:50 31.39740 -76.72610 35869 ft 387 kts 266°
2026-05-07 22:51 31.38745 -76.78809 35874 ft 388 kts 265°
2026-05-07 22:51 31.37725 -76.85012 35874 ft 388 kts 266°
2026-05-07 22:52 31.36798 -76.91218 35871 ft 387 kts 266°
2026-05-07 22:52 31.36086 -76.97426 35870 ft 379 kts 279°
2026-05-07 22:52 31.36698 -77.00362 35896 ft 371 kts 298°
2026-05-07 22:53 31.38208 -77.02801 35917 ft 373 kts 312°
2026-05-07 22:53 31.42009 -77.06948 35883 ft 378 kts 315°
2026-05-07 22:54 31.45975 -77.10963 35861 ft 376 kts 316°
2026-05-07 22:54 31.49917 -77.14961 35854 ft 374 kts 315°
2026-05-07 22:55 31.53806 -77.19009 35854 ft 373 kts 314°
2026-05-07 22:55 31.57669 -77.23076 35856 ft 373 kts 314°
2026-05-07 22:56 31.61530 -77.27152 35854 ft 373 kts 314°
2026-05-07 22:56 31.65393 -77.31223 35852 ft 373 kts 314°
2026-05-07 22:57 31.69245 -77.35295 35852 ft 372 kts 314°
2026-05-07 22:57 31.73097 -77.39369 35850 ft 372 kts 314°
2026-05-07 22:58 31.76944 -77.43437 35849 ft 372 kts 314°
2026-05-07 22:58 31.80788 -77.47499 35850 ft 372 kts 314°
2026-05-07 22:59 31.84630 -77.51562 35845 ft 371 kts 314°
2026-05-07 22:59 31.88442 -77.55596 35838 ft 371 kts 314°
2026-05-07 23:00 31.92278 -77.59660 35845 ft 371 kts 314°
2026-05-07 23:00 31.96111 -77.63723 35837 ft 371 kts 314°
2026-05-07 23:01 31.99931 -77.67777 35838 ft 369 kts 314°
2026-05-07 23:01 32.03733 -77.71839 35845 ft 369 kts 313°
2026-05-07 23:02 32.07552 -77.75921 35840 ft 371 kts 313°
2026-05-07 23:02 32.11381 -77.80008 35834 ft 371 kts 313°
2026-05-07 23:03 32.15022 -77.83890 35830 ft 371 kts 313°
2026-05-07 23:03 32.18758 -77.88068 35828 ft 366 kts 302°
2026-05-07 23:04 32.20877 -77.93470 35843 ft 364 kts 290°
2026-05-07 23:04 32.22653 -77.99078 35827 ft 364 kts 290°
2026-05-07 23:05 32.24425 -78.04672 35823 ft 363 kts 290°
2026-05-07 23:05 32.26241 -78.10242 35818 ft 363 kts 291°
2026-05-07 23:06 32.28074 -78.15802 35819 ft 363 kts 291°
2026-05-07 23:06 32.29915 -78.21365 35818 ft 363 kts 291°
2026-05-07 23:07 32.31753 -78.26930 35821 ft 363 kts 290°
2026-05-07 23:07 32.33585 -78.32496 35817 ft 363 kts 290°
2026-05-07 23:08 32.35412 -78.38061 35817 ft 363 kts 290°
2026-05-07 23:08 32.37215 -78.43593 35814 ft 363 kts 290°
2026-05-07 23:09 32.39027 -78.49162 35817 ft 363 kts 290°
2026-05-07 23:09 32.40839 -78.54731 35813 ft 362 kts 290°
2026-05-07 23:10 32.42649 -78.60297 35813 ft 362 kts 290°
2026-05-07 23:10 32.44457 -78.65858 35818 ft 362 kts 290°
2026-05-07 23:11 32.46264 -78.71419 35813 ft 362 kts 290°
2026-05-07 23:11 32.48069 -78.76977 35814 ft 361 kts 290°
2026-05-07 23:12 32.49872 -78.82531 35812 ft 361 kts 290°
2026-05-07 23:12 32.51664 -78.88087 35811 ft 361 kts 289°
2026-05-07 23:13 32.53436 -78.93644 35808 ft 360 kts 289°
2026-05-07 23:13 32.55206 -78.99198 35810 ft 360 kts 289°
2026-05-07 23:14 32.56980 -79.04743 35808 ft 359 kts 289°
2026-05-07 23:14 32.58752 -79.10280 35808 ft 359 kts 289°
2026-05-07 23:15 32.60510 -79.15770 35802 ft 358 kts 289°
2026-05-07 23:15 32.62278 -79.21300 35807 ft 358 kts 289°
2026-05-07 23:16 32.64045 -79.26824 35805 ft 358 kts 289°
2026-05-07 23:16 32.65806 -79.32351 35808 ft 358 kts 288°
2026-05-07 23:17 32.67541 -79.37886 35799 ft 358 kts 289°
2026-05-07 23:17 32.69278 -79.43412 35805 ft 357 kts 288°
2026-05-07 23:18 32.71029 -79.48932 35803 ft 357 kts 289°
2026-05-07 23:18 32.72485 -79.53511 35798 ft 357 kts 289°
2026-05-07 23:19 32.74250 -79.59019 35797 ft 357 kts 289°
2026-05-07 23:19 32.76098 -79.64490 35799 ft 357 kts 289°
2026-05-07 23:20 32.77873 -79.69669 35802 ft 357 kts 289°
2026-05-07 23:20 32.79735 -79.75126 35799 ft 356 kts 289°
2026-05-07 23:21 32.81589 -79.80587 35799 ft 356 kts 289°
2026-05-07 23:21 32.83436 -79.86042 35798 ft 356 kts 289°
2026-05-07 23:22 32.85281 -79.91497 35808 ft 355 kts 289°
2026-05-07 23:22 32.87123 -79.96945 35804 ft 355 kts 289°
2026-05-07 23:23 32.88966 -80.02393 35808 ft 355 kts 289°
2026-05-07 23:23 32.89651 -80.05191 35814 ft 352 kts 278°
2026-05-07 23:23 32.89956 -80.08081 35814 ft 352 kts 276°
2026-05-07 23:24 32.90427 -80.13887 35809 ft 353 kts 276°
2026-05-07 23:24 32.90911 -80.19693 35811 ft 352 kts 276°
2026-05-07 23:25 32.91437 -80.25491 35792 ft 352 kts 276°
2026-05-07 23:25 32.91990 -80.31273 35796 ft 352 kts 276°
2026-05-07 23:26 32.92549 -80.37057 35795 ft 352 kts 276°
2026-05-07 23:26 32.93106 -80.42845 35794 ft 352 kts 276°
2026-05-07 23:27 32.93937 -80.51532 35831 ft 352 kts 276°
2026-05-07 23:27 32.94481 -80.57330 35834 ft 352 kts 276°
2026-05-07 23:28 32.95004 -80.63127 35830 ft 352 kts 276°
2026-05-07 23:28 32.95524 -80.68893 35835 ft 353 kts 276°
2026-05-07 23:29 32.96050 -80.74696 35831 ft 353 kts 275°
2026-05-07 23:29 32.96577 -80.80503 35828 ft 352 kts 276°
2026-05-07 23:30 32.97104 -80.86297 35823 ft 352 kts 275°
2026-05-07 23:30 32.97630 -80.92092 35815 ft 351 kts 275°
2026-05-07 23:31 32.98155 -80.97877 35807 ft 351 kts 275°
2026-05-07 23:31 32.98680 -81.03657 35806 ft 351 kts 275°
2026-05-07 23:32 32.99184 -81.09437 35804 ft 351 kts 275°
2026-05-07 23:32 32.99678 -81.15210 35804 ft 350 kts 275°
2026-05-07 23:33 33.00175 -81.20981 35801 ft 350 kts 275°
2026-05-07 23:33 33.00675 -81.26751 35802 ft 350 kts 275°
2026-05-07 23:34 33.01176 -81.32518 35802 ft 350 kts 275°
2026-05-07 23:34 33.01676 -81.38279 35803 ft 350 kts 275°
2026-05-07 23:35 33.02176 -81.44041 35808 ft 349 kts 275°
2026-05-07 23:35 33.02674 -81.49797 35812 ft 349 kts 275°
2026-05-07 23:36 33.03136 -81.55554 35808 ft 349 kts 274°
2026-05-07 23:36 33.03541 -81.61314 35802 ft 349 kts 274°
2026-05-07 23:37 33.04001 -81.67064 35807 ft 349 kts 275°
2026-05-07 23:37 33.04500 -81.72775 35807 ft 349 kts 275°
2026-05-07 23:38 33.05017 -81.78518 35806 ft 348 kts 275°
2026-05-07 23:38 33.05533 -81.84256 35808 ft 348 kts 275°
2026-05-07 23:39 33.06011 -81.89995 35805 ft 348 kts 273°
2026-05-07 23:39 33.06406 -81.95737 35805 ft 348 kts 273°
2026-05-07 23:40 33.06809 -82.01479 35804 ft 347 kts 273°
2026-05-07 23:40 33.07230 -82.07214 35808 ft 347 kts 274°
2026-05-07 23:41 33.07659 -82.12950 35809 ft 347 kts 273°
2026-05-07 23:41 33.08090 -82.18678 35812 ft 347 kts 274°
2026-05-07 23:42 33.08519 -82.24409 35813 ft 347 kts 273°
2026-05-07 23:42 33.08946 -82.30135 35812 ft 347 kts 273°
2026-05-07 23:43 33.09371 -82.35859 35817 ft 346 kts 273°